Location: Aciu?a
(46.2833°N, 22.4500°E)
Time: 05:14:49
(UTC+00:00)

Cosmos 1934 Rocket - Pass Details

Date: 25 October 2021
Orbit: 938 x 999 km, 83.0° (Epoch: 04 December)

Event Time Altitude Azimuth Distance (km) Brightness Sun altitude
Rises 16:03:55 0° 172° (S) 3,610 7.0 -7.1°
Reaches altitude 10° 16:06:27 10° 168° (SSE) 2,663 6.3 -7.6°
Maximum altitude 16:12:21 56° 92° (E) 1,113 4.0 -8.6°
Drops below altitude 10° 16:18:16 10° 16° (NNE) 2,663 6.1 -9.6°
Sets 16:20:47 0° 13° (NNE) 3,612 6.8 -10.0°
